Dewpoint
-10 -11 -10 -8 -6 -6 -5 -0 5 8 11 12 12 12 13 13 12 11 8 10 10 8 8 7 5 10 11 11 10 8 5 9 8
-10 -10 -11 -12 -12 -12 -10 -8 -7 -4 4 8 9 11 12 12 13 13 11 9 10 10 8 7 5 0 6 9 9 9 5 7 7
-9 -9 -9 -9 -9 -10 -11 -12 -12 -11 -10 -6 3 7 10 12 12 12 12 12 10 10 11 10 6 1 0 0 1 2 3 5 7
-9 -9 -9 -9 -9 -8 -9 -9 -9 -11 -12 -12 -11 -6 4 8 10 12 12 12 11 11 12 12 10 5 3 -1 1 1 2 3 6
-8 -8 -8 -7 -6 -7 -8 -8 -9 -8 -9 -9 -10 -11 -10 -1 6 8 11 12 12 13 13 12 12 8 5 3 7 6 3 3 3
-6 -6 -5 -6 -6 -6 -7 -7 -8 -8 -8 -8 -8 -7 -8 -10 -5 4 6 8 11 12 13 13 13 11 7 7 9 12 12 11 10
-9 -9 -9 -9 -10 -10 -9 -10 -12 -13 -12 -10 -8 -7 -4 -3 -5 -2 1 4 7 9 10 13 13 13 9 8 9 9 11 12 12
-9 -9 -9 -10 -11 -12 -13 -13 -13 -14 -16 -17 -14 -9 -7 -2 2 2 2 3 5 7 9 11 12 13 12 10 9 9 9 10 10
-7 -8 -10 -10 -10 -12 -15 -15 -16 -17 -18 -19 -18 -13 -8 -4 1 2 2 1 3 6 9 11 11 9 12 12 11 12 12 12 12
-8 -10 -11 -11 -10 -12 -15 -16 -17 -18 -20 -20 -18 -13 -9 -5 -0 1 1 1 1 2 5 7 8 8 9 11 13 13 12 12 12
-8 -9 -10 -10 -10 -13 -14 -15 -16 -18 -19 -16 -13 -11 -9 -6 -3 -1 0 1 1 1 2 3 4 3 1 2 10 12 12 11 11
-6 -8 -9 -9 -10 -12 -13 -15 -15 -18 -16 -10 -8 -9 -7 -4 -4 -2 -1 1 1 1 2 -0 -1 -1 -1 -3 0 5 7 5 6
-5 -5 -8 -10 -11 -12 -14 -14 -16 -18 -15 -6 -4 -6 -5 -2 -1 -2 -2 0 1 1 1 1 0 -0 0 -0 -1 2 3 -2 -0
-3 -4 -6 -9 -10 -13 -14 -14 -14 -19 -18 -8 -3 -0 -2 0 -0 0 -2 0 1 2 1 0 0 1 -1 -2 -1 -1 1 -0 -2
-1 -4 -6 -7 -9 -11 -13 -13 -15 -17 -17 -8 -1 4 3 2 3 2 1 2 2 2 2 1 1 2 1 -0 -0 0 1 1 1
-1 -4 -5 -6 -8 -11 -12 -13 -14 -16 -17 -6 3 5 5 4 4 4 4 4 3 4 3 3 4 4 3 3 2 1 2 2 2
-1 -3 -5 -5 -7 -10 -11 -11 -13 -13 -11 -10 4 5 5 4 4 5 5 4 4 4 4 3 3 3 3 3 3 2 2 2 2
-2 -2 -3 -5 -8 -9 -10 -10 -11 -12 -7 -4 -1 3 4 4 5 5 4 4 4 4 3 3 2 2 2 2 2 1 1 0 1
-2 -1 -2 -4 -7 -9 -9 -10 -10 -12 -9 -7 -5 -0 2 3 2 4 4 4 4 3 2 2 2 2 1 2 1 1 1 -0 -1
-1 -0 -0 -3 -5 -8 -8 -9 -9 -10 -10 -8 -6 -4 1 3 2 2 1 1 3 3 3 2 2 1 1 1 2 2 2 1 0
Wind_Speed
13 13 13 13 13 14 14 14 14 15 16 15 15 15 17 16 17 15 16 18 15 14 12 13 16 17 15 14 12 10 9 9 6
10 10 11 11 12 13 15 16 16 17 17 18 18 18 17 17 19 19 18 21 21 18 15 15 15 17 18 18 16 13 12 11 9
12 11 11 12 12 12 13 14 15 17 18 19 20 21 21 20 20 21 21 21 24 22 20 17 17 17 17 17 16 15 14 13 11
12 12 11 11 11 12 13 13 14 15 16 18 21 23 24 24 23 24 22 23 26 26 23 21 20 19 17 16 16 14 13 13 12
12 12 13 12 12 12 12 13 13 14 16 17 19 22 25 27 27 26 26 24 26 30 27 28 23 23 20 20 17 15 13 12 12
11 12 12 13 14 14 14 14 15 16 17 18 19 20 22 26 28 27 26 24 26 28 31 31 30 25 23 22 22 20 17 15 13
12 13 14 15 15 15 17 17 17 17 18 19 19 21 22 22 23 22 24 24 21 26 28 32 35 28 26 24 22 20 18 18 17
13 14 15 15 16 16 17 18 18 18 19 19 19 20 21 23 21 19 16 18 19 22 26 24 23 32 26 24 23 21 18 16 16
15 15 16 16 17 17 18 19 20 19 19 19 19 19 20 19 23 22 19 17 19 16 18 17 10 24 15 23 23 20 19 17 17
15 15 15 15 16 17 18 18 19 19 18 18 16 18 18 18 17 20 23 21 19 17 13 15 14 15 16 19 9 14 15 14 14
15 15 15 15 15 16 18 19 18 19 18 16 14 16 15 15 14 13 15 21 21 18 17 19 19 19 19 20 18 17 17 16 17
15 15 16 15 14 16 17 18 18 18 15 15 13 14 12 12 12 12 12 14 19 22 20 21 22 20 20 19 18 18 19 19 19
15 15 16 15 15 16 18 19 17 17 16 14 10 13 12 10 10 11 12 12 12 15 16 15 17 16 12 13 15 15 16 18 18
16 15 15 15 15 16 18 17 18 18 16 13 10 6 9 6 8 9 11 12 13 14 14 15 13 12 10 9 10 12 14 17 19
16 14 15 15 15 16 16 17 15 17 17 14 4 4 3 2 2 3 5 7 9 11 10 8 7 6 4 3 5 8 11 14 15
14 13 14 14 15 15 16 16 15 14 14 9 3 4 5 6 7 6 4 4 2 2 2 2 2 2 2 2 3 5 8 9 11
14 13 13 13 14 14 14 14 14 13 14 9 3 2 2 2 5 4 3 2 1 2 2 1 4 5 5 6 6 6 7 8 10
11 11 12 12 13 13 13 13 13 12 10 8 4 1 1 3 3 2 2 2 2 3 3 3 3 4 7 8 9 9 9 9 9
10 9 10 11 11 12 12 11 11 11 9 7 6 3 3 2 2 4 5 6 7 7 7 7 7 8 8 9 9 9 9 9 10
9 8 9 10 10 11 10 10 10 10 9 9 7 5 3 4 6 9 10 11 12 14 15 13 12 10 8 9 8 9 9 9 12
Wind_Direction
306 303 297 291 288 284 279 274 273 273 274 274 276 278 274 260 253 243 239 242 245 236 228 231 228 232 231 232 232 229 223 217 225
318 316 311 304 296 289 284 280 275 271 269 270 269 269 269 268 264 251 236 236 241 244 235 242 241 235 235 233 232 228 222 218 223
315 311 308 309 307 303 298 293 286 278 271 266 265 265 266 265 259 259 252 240 233 235 236 245 242 234 233 230 225 221 215 216 217
315 315 316 315 313 310 303 298 293 289 282 275 267 262 260 260 259 258 253 249 237 234 231 239 244 237 228 225 215 212 211 215 219
320 323 322 321 318 318 314 307 300 293 289 284 276 267 259 256 257 256 255 251 252 243 239 235 238 238 228 219 214 208 208 211 216
322 318 314 317 318 317 314 312 308 304 295 288 284 279 268 259 255 256 256 256 252 254 244 238 235 237 232 226 221 222 223 222 222
320 317 315 314 311 310 308 304 302 299 294 286 280 277 271 265 258 253 256 257 256 250 255 243 235 229 229 224 226 225 224 227 233
315 312 309 308 307 306 303 302 302 302 301 296 287 279 273 261 254 252 254 251 255 256 254 257 264 231 225 227 228 229 231 232 236
317 312 309 309 309 310 311 312 311 308 304 299 290 282 272 263 251 254 257 258 259 265 259 253 271 223 273 228 222 229 236 239 244
322 320 318 313 310 311 314 313 312 309 308 300 296 285 273 260 258 254 255 255 257 262 257 262 263 287 232 265 209 224 231 236 242
321 322 322 316 313 314 317 318 316 313 316 307 299 280 270 260 258 263 260 254 253 263 267 269 268 267 259 250 240 241 239 238 242
323 324 326 324 321 319 319 316 315 313 315 305 301 279 257 257 252 260 266 260 258 259 264 265 269 270 264 247 243 244 250 253 255
321 321 324 326 325 323 322 319 320 320 318 314 306 288 259 252 259 264 265 264 263 265 268 267 268 270 269 247 238 239 247 254 257
315 314 320 323 325 325 325 324 325 326 325 323 313 314 280 263 260 265 258 261 266 275 281 282 283 283 286 267 251 246 248 251 255
310 309 315 320 323 326 327 326 333 333 333 335 344 52 51 11 340 291 262 267 276 283 287 290 287 288 306 265 239 242 248 253 256
307 310 313 316 323 327 327 329 337 337 343 359 67 104 72 78 69 66 50 35 36 345 341 347 326 297 309 303 253 242 247 250 253
301 308 313 314 321 327 324 329 336 349 351 2 13 28 75 74 83 70 73 47 93 140 85 15 311 295 287 288 282 275 266 264 260
305 313 315 315 319 326 324 329 335 345 357 4 9 25 334 10 154 217 228 256 302 273 267 272 297 294 293 291 295 288 280 275 267
296 305 312 316 320 323 324 330 332 337 344 352 355 282 266 293 249 231 242 253 264 276 277 284 298 297 291 300 304 298 289 276 267
294 298 312 318 321 320 321 327 328 330 331 334 346 3 261 248 276 291 269 275 274 277 273 277 285 279 278 299 304 310 306 309 293
Height
1534 1532 1531 1529 1528 1527 1526 1525 1524 1524 1523 1523 1523 1522 1522 1521 1521 1521 1522 1521 1521 1521 1520 1521 1522 1523 1523 1524 1524 1525 1526 1526 1527
1532 1530 1528 1527 1525 1524 1522 1521 1521 1520 1520 1519 1519 1519 1518 1518 1518 1518 1518 1518 1518 1518 1518 1518 1518 1518 1520 1521 1522 1522 1523 1524 1525
1530 1528 1526 1524 1523 1521 1519 1518 1517 1516 1515 1515 1514 1514 1514 1513 1513 1514 1514 1514 1514 1514 1515 1515 1515 1515 1515 1517 1518 1519 1520 1521 1523
1527 1525 1524 1522 1520 1518 1517 1515 1514 1512 1511 1510 1510 1510 1509 1508 1508 1508 1509 1510 1510 1510 1510 1510 1511 1512 1512 1513 1514 1515 1516 1518 1520
1524 1522 1521 1519 1518 1516 1514 1513 1511 1509 1507 1506 1505 1504 1504 1503 1503 1503 1504 1504 1504 1505 1506 1506 1506 1508 1508 1510 1512 1512 1513 1515 1517
1523 1521 1519 1517 1515 1513 1511 1510 1508 1506 1504 1502 1501 1500 1499 1498 1498 1498 1498 1497 1497 1497 1499 1500 1502 1504 1505 1507 1508 1509 1510 1512 1513
1521 1519 1517 1515 1512 1510 1509 1507 1505 1503 1501 1499 1497 1496 1495 1494 1493 1493 1493 1492 1492 1493 1493 1494 1496 1499 1500 1501 1505 1507 1507 1508 1510
1519 1517 1515 1513 1510 1508 1505 1504 1501 1499 1496 1494 1492 1491 1490 1490 1489 1489 1488 1488 1488 1488 1488 1490 1481 1470 1495 1497 1502 1504 1504 1504 1507
1517 1515 1512 1510 1507 1505 1502 1499 1497 1494 1492 1489 1488 1486 1486 1485 1485 1485 1485 1485 1485 1484 1483 1488 1485 1479 1480 1488 1498 1500 1502 1500 1503
1515 1513 1510 1507 1505 1502 1500 1496 1494 1490 1487 1486 1484 1483 1482 1481 1481 1481 1481 1481 1482 1482 1484 1482 1486 1483 1487 1472 1477 1494 1496 1495 1498
1513 1511 1508 1505 1502 1500 1497 1494 1491 1487 1484 1482 1480 1480 1478 1478 1478 1477 1477 1477 1478 1480 1481 1480 1483 1487 1492 1491 1491 1492 1489 1489 1494
1511 1509 1506 1503 1500 1498 1495 1492 1489 1485 1481 1479 1478 1476 1475 1475 1475 1475 1474 1474 1475 1476 1479 1479 1480 1484 1487 1487 1487 1486 1484 1485 1490
1509 1507 1505 1501 1498 1496 1493 1490 1487 1482 1479 1477 1475 1474 1473 1473 1473 1473 1472 1472 1472 1474 1474 1477 1477 1479 1480 1478 1479 1479 1479 1482 1485
1507 1505 1503 1499 1497 1494 1491 1489 1484 1480 1478 1476 1474 1472 1472 1471 1471 1471 1471 1472 1472 1472 1471 1469 1470 1470 1470 1470 1471 1473 1476 1478 1481
1505 1503 1501 1498 1495 1493 1490 1488 1484 1479 1477 1475 1473 1472 1471 1471 1471 1471 1471 1472 1471 1470 1469 1468 1466 1467 1467 1468 1469 1471 1474 1477 1479
1503 1501 1499 1496 1494 1491 1489 1487 1483 1480 1478 1475 1474 1473 1473 1472 1472 1472 1473 1472 1471 1470 1469 1468 1469 1469 1470 1470 1470 1472 1474 1476 1478
1500 1499 1497 1494 1492 1490 1489 1486 1483 1480 1478 1476 1475 1474 1475 1473 1473 1473 1473 1471 1471 1471 1469 1468 1469 1469 1470 1471 1472 1473 1475 1475 1476
1498 1496 1495 1493 1491 1489 1488 1486 1483 1481 1480 1478 1477 1475 1475 1474 1474 1473 1472 1472 1471 1471 1470 1470 1470 1470 1470 1471 1472 1472 1472 1473 1474
1495 1494 1493 1492 1489 1488 1487 1485 1483 1481 1480 1479 1477 1476 1475 1474 1474 1473 1472 1471 1471 1471 1470 1470 1470 1470 1470 1470 1471 1471 1471 1471 1471
1493 1492 1491 1490 1488 1487 1486 1484 1482 1480 1479 1478 1477 1476 1475 1475 1475 1472 1471 1471 1471 1470 1469 1469 1468 1468 1469 1469 1469 1469 1468 1468 1468